Location: Monteux
(44.0348°N, 4.9972°E)
Time: 18:42:15
(UTC+00:00)

OPS 4078 - Visible Passes

Search period start: 22 June 2021 00:00
Search period end: 02 July 2021 00:00
Orbit: 780 x 822 km, 98.3° (Epoch: 21 June)

Date Brightness Start Highest point End Pass type
(mag) Time Alt. Az. Time Alt. Az. Time Alt. Az.
22 Jun 9.7 01:48:45 10° ESE 01:53:05 26° ENE 01:57:27 10° N visible
23 Jun 10.3 01:23:50 10° E 01:27:04 17° ENE 01:30:19 10° NNE visible
23 Jun 7.6 03:00:50 10° S 03:06:07 77° WSW 03:11:31 10° NNW visible
24 Jun 8.1 02:34:35 10° SSE 02:39:49 64° ENE 02:45:08 10° N visible
25 Jun 9.1 02:08:44 10° SE 02:13:37 38° ENE 02:18:33 10° N visible
26 Jun 9.9 01:43:20 10° ESE 01:47:31 24° ENE 01:51:44 10° N visible
26 Jun 7.9 03:21:45 10° S 03:26:54 50° W 03:32:08 10° NNW visible
27 Jun 10.3 01:18:34 10° E 01:21:31 15° ENE 01:24:29 10° NNE visible
27 Jun 7.6 02:55:11 10° SSE 03:00:31 85° WSW 03:05:55 10° NNW visible
28 Jun 8.3 02:29:01 10° SSE 02:34:13 58° ENE 02:39:30 10° N visible
29 Jun 9.2 02:03:15 10° SE 02:08:03 35° ENE 02:12:53 10° N visible
30 Jun 10.0 01:37:57 10° ESE 01:41:57 22° ENE 01:46:00 10° NNE visible
30 Jun 7.8 03:16:03 10° S 03:21:16 56° W 03:26:34 10° NNW visible
01 Jul 10.4 01:13:22 10° E 01:15:59 14° ENE 01:18:36 10° NNE visible
01 Jul 7.7 02:49:33 10° SSE 02:54:54 87° ENE 03:00:19 10° NNW visible
